Tracking 25656 objects as of 21-May-2022
HD Live streaming from Space Station
objects crossing your sky now

COSMOS 2251 DEB

Track COSMOS 2251 DEB now!
10-day predictions


NORAD ID: 35904
Int'l Code: 1993-036AUT
Perigee: 677.3 km
Apogee: 716.9 km
Inclination: 74.0 °
Period: 98.6 minutes
Semi major axis: 7068 km
RCS: 0.0063 m2 (small)
Launch date: June 16, 1993
Source: Commonwealth of Independent States (former USSR) (CIS)
Launch site: PLESETSK MISSILE AND SPACE COMPLEX (PKMTR)

Note: This is SATELLITE DEBRIS
aabbcc
Your satellite tracking list
Your tracking list is empty




NASA's NSSDC Master Catalog

Two Line Element Set (TLE):
1 35904U 93036AUT 22140.55981758  .00008476  00000-0  17225-2 0  9993
2 35904  74.0246 245.7224 0028016 343.1477  16.8755 14.61000974675314
Source of the keplerian elements: AFSPC